Location: ?????????
(54.7630°N, 39.4991°E)
Time: 10:13:14
(UTC+00:00)

Okean 1-7 Rocket - Pass Details

Date: 14 April 2026
Orbit: 610 x 642 km, 82.5° (Epoch: 19 May)

Event Time Altitude Azimuth Distance (km) Brightness Sun altitude
Rises 22:58:18 0° 346° (NNW) 2,892 7.8 -22.5°
Reaches altitude 10° 23:00:32 10° 345° (NNW) 1,981 6.8 -22.3°
Maximum altitude 23:04:53 72° 262° (W) 650 3.4 -22.0°
Enters shadow 23:05:11 68° 228° (SW) 662 3.4 -22.0°
